North Middletown, New Jersey
Current Conditions -  °F | °C
As of 4:35 AM on Thursday 23 Oct 2014 (Local Time) from KBLM Reporting Station
Overcast Overcast  
Wind Chill: 52°   Ceiling: 1800
Heat Index: 52°   Visibility: 10mi
Dew Point: 45°   Wind: 18mph
Humidity: 76%   Direction: 350°N
Pressure: 29.68"   Gusts: NA
Location:  40.3908°N, 74.1116°W
Report Text: KBLM 230835Z AUTO 35016KT 10SM OVC018 11/07 A2968 RMK AO1
Loading
Personal Weather Stations






























Interactive Weather Map
Tropical Storm Tracking
New forecast layout! Learn more

10-Day Weather Forecast

Advertisements
Track Severe Weather on mobile